Theta_e
298 298 299 299 300 300 301 301 303 303 304 303 303 303 303 303 303 304 304 305 305 306 306 307 307 308 309 309 308 307 307 307 306 306 306 306 305 305 305 304 303 303 303 303 304 304 304 304 305 306 306 306 305 305 305 305 305 305 305 305 305 304 304 304 304 305 305 306 306
297 298 298 300 300 300 300 301 302 303 303 303 303 303 303 303 303 303 304 304 305 306 306 306 307 307 307 309 309 308 307 306 305 305 304 304 303 303 303 302 302 302 302 302 303 303 303 303 305 306 306 306 305 304 304 304 304 304 303 303 303 303 303 303 303 304 304 304 304
297 297 298 298 298 299 299 299 300 301 302 303 303 303 303 303 303 303 304 304 305 305 306 306 306 305 305 306 306 307 307 306 305 304 303 303 303 304 303 303 303 303 303 303 302 302 302 302 304 305 305 305 304 303 303 303 303 303 303 302 302 303 303 303 303 303 303 303 303
297 297 297 297 297 298 298 299 299 300 301 302 303 303 303 303 303 304 304 304 305 305 305 305 305 305 304 303 304 304 304 304 304 303 303 303 304 304 304 304 304 304 303 303 303 302 302 303 303 304 304 303 302 302 302 302 302 302 302 302 302 302 302 303 302 303 303 303 302
296 297 297 297 297 298 298 299 299 299 300 302 303 303 304 303 303 303 304 304 304 305 305 305 305 305 304 303 303 303 302 302 303 303 303 303 303 303 303 303 303 303 303 303 303 302 303 302 303 303 303 302 302 302 302 301 300 300 301 302 302 302 302 302 302 302 303 303 302
296 296 297 297 297 298 299 299 299 299 300 301 302 303 303 304 303 303 304 304 304 305 305 305 305 305 304 302 302 302 302 302 302 302 302 302 302 303 303 303 302 302 302 302 302 302 301 301 302 302 302 302 302 301 301 301 301 300 300 301 301 301 301 301 301 302 302 302 301
296 296 296 297 297 298 298 299 299 299 300 300 301 302 303 303 302 302 302 303 303 304 305 305 305 304 303 302 302 301 302 302 302 301 301 301 301 301 301 301 301 301 301 301 301 301 300 300 301 301 301 302 301 300 300 300 300 299 299 299 300 301 301 300 301 301 301 300 300
296 296 296 297 297 298 299 299 299 299 299 300 300 301 302 303 303 303 302 302 302 303 304 304 303 303 303 302 302 302 302 302 301 301 300 300 300 299 299 299 299 299 299 299 299 298 298 298 299 299 299 299 300 299 299 298 298 298 298 298 299 300 300 300 300 301 301 300 299
295 295 296 296 297 298 299 299 299 299 299 299 300 301 301 303 304 304 303 302 302 302 303 303 302 302 302 302 302 302 302 302 301 300 299 299 298 298 297 297 297 298 297 297 297 297 297 297 297 297 297 298 298 298 297 297 296 296 296 297 298 298 299 299 300 300 300 300 299
294 295 295 296 297 298 298 299 299 299 299 299 300 301 302 304 304 305 304 304 304 303 303 302 302 302 302 302 302 302 301 301 300 299 298 298 297 297 297 297 297 297 297 297 297 297 297 297 296 296 296 296 296 296 295 296 295 295 295 296 297 297 297 297 298 298 299 299 299
293 294 294 295 296 297 298 298 299 299 299 299 300 301 302 304 304 305 305 305 304 304 303 303 303 302 302 302 301 301 300 299 298 298 297 297 297 297 297 297 297 297 297 298 297 297 297 297 296 296 296 296 295 295 295 295 295 295 295 295 295 295 296 296 297 297 297 298 298
293 293 294 294 295 295 296 296 297 298 298 298 299 300 301 302 304 304 305 304 304 304 304 304 303 302 302 302 301 300 299 298 298 297 297 296 297 297 297 297 297 297 297 297 297 297 297 297 296 296 296 296 296 295 295 295 295 294 294 295 295 295 295 296 296 296 296 296 296
292 293 293 293 294 294 294 295 296 296 297 298 299 299 300 301 303 303 304 304 304 304 304 304 303 302 301 301 300 299 298 298 297 297 297 296 296 297 297 297 297 297 297 297 297 297 297 297 297 296 296 296 296 296 296 295 295 295 295 295 295 295 295 295 296 296 296 296 296
292 292 292 292 293 293 293 293 294 296 297 298 299 299 299 299 300 301 302 303 303 304 304 304 303 301 300 299 299 298 298 297 297 297 296 296 296 296 297 297 297 297 297 298 298 297 297 297 297 297 297 296 296 296 296 296 296 296 296 295 295 295 295 295 295 295 295 295 295
291 292 292 292 292 292 292 292 294 295 296 298 298 298 298 299 298 299 299 300 301 302 303 303 301 300 300 299 298 298 298 297 297 297 296 296 297 297 297 297 297 297 298 298 298 299 299 299 298 298 297 297 297 296 296 296 296 296 295 295 295 295 295 295 296 295 295 295 295
291 291 291 291 291 291 291 292 293 294 294 295 296 297 297 297 298 298 298 298 299 300 300 300 299 299 299 299 299 299 298 298 298 297 297 297 297 297 297 297 298 299 299 299 300 300 300 300 299 299 298 297 297 297 296 296 296 295 295 294 294 294 294 295 295 295 295 295 295
290 290 290 290 290 290 291 291 291 292 292 293 294 295 296 296 297 297 297 297 298 298 298 298 299 299 299 299 299 299 299 299 298 298 297 297 297 297 298 298 299 299 300 300 300 300 299 299 299 298 298 297 297 296 296 295 295 294 293 293 293 293 293 294 294 294 294 294 294
289 290 290 290 290 290 290 291 291 291 291 291 292 293 294 294 295 296 296 297 297 297 298 298 298 298 298 298 299 299 299 299 299 298 298 298 298 298 298 299 299 299 299 300 299 299 299 298 298 297 297 296 296 295 294 294 294 293 293 292 292 292 292 292 293 293 293 293 293
289 289 289 290 290 290 290 290 290 291 291 291 291 292 292 293 294 294 295 296 296 296 297 297 298 298 298 298 298 299 299 299 299 299 299 298 298 298 298 298 298 298 298 298 298 298 298 297 297 296 295 295 294 294 294 293 293 292 292 292 292 292 291 292 292 292 292 293 293
288 289 289 289 290 290 290 290 290 290 290 291 291 291 292 292 293 293 294 294 295 296 296 297 297 297 298 298 298 299 299 299 299 299 299 298 298 298 297 297 297 297 297 297 297 297 296 296 295 295 294 294 293 293 293 292 292 292 291 291 291 291 291 291 291 292 292 292 292
288 288 289 289 289 289 289 290 290 290 290 290 291 291 291 292 292 292 293 294 295 295 296 296 296 296 297 297 298 299 299 300 299 299 298 298 298 297 297 297 296 296 296 296 295 295 295 294 294 294 293 293 292 292 291 291 291 291 290 290 290 290 291 291 291 291 291 291 292
288 288 289 289 289 289 289 289 290 290 290 290 290 290 291 292 292 292 293 293 294 294 295 295 296 296 296 297 298 298 299 299 299 299 298 298 298 298 297 297 296 296 295 295 295 294 293 293 293 292 292 292 291 291 291 290 290 290 290 290 290 290 290 291 291 291 291 291 291
287 288 288 289 289 289 289 289 289 289 290 289 289 290 290 291 292 292 293 293 293 294 294 295 296 296 296 297 297 297 298 297 298 298 298 298 297 297 297 296 296 295 295 294 294 293 292 292 291 291 291 290 290 290 290 290 289 289 289 289 289 290 290 290 290 291 291 291 291
287 288 288 288 288 288 288 289 289 289 289 289 289 289 289 290 291 292 293 293 294 294 294 295 295 296 296 296 296 296 296 296 296 297 297 297 296 296 295 295 294 294 294 294 294 293 292 291 291 290 290 289 289 289 289 289 289 289 289 289 289 289 289 289 290 290 290 290 291
287 287 287 288 288 287 287 288 288 288 289 289 289 289 289 290 291 292 293 293 294 294 294 294 294 294 294 294 294 294 294 294 295 296 296 295 295 294 294 294 294 294 294 295 295 295 294 293 291 290 289 288 288 288 288 288 288 288 288 288 288 288 288 288 288 289 289 290 290
286 286 286 287 287 287 287 287 288 288 288 288 288 288 289 289 291 292 292 292 293 294 294 294 293 293 293 292 292 292 292 293 294 294 294 294 293 293 293 293 293 293 294 295 295 295 294 294 292 290 289 287 287 287 287 287 287 287 288 288 287 287 287 287 287 288 288 289 290
286 286 286 286 286 286 286 286 287 288 288 288 288 288 289 289 291 291 291 290 291 292 293 293 292 292 291 291 290 290 290 291 292 293 293 293 292 292 292 292 293 293 294 295 295 295 295 294 293 292 290 288 287 287 287 287 287 287 287 287 287 287 287 286 286 287 287 288 288
285 285 285 286 285 285 286 286 287 288 288 288 288 288 288 289 290 290 289 289 289 290 291 292 291 291 290 289 289 289 289 289 290 291 292 292 292 292 292 292 292 293 294 295 295 295 294 294 293 292 291 289 288 287 287 286 286 286 287 287 287 287 286 286 286 286 286 287 287
285 285 285 285 285 285 285 286 287 287 288 288 288 288 288 289 290 289 289 288 288 289 289 290 290 290 289 288 288 288 288 288 289 290 291 292 292 292 292 292 292 293 294 295 294 294 294 293 293 292 292 290 289 288 287 286 286 286 286 286 286 286 286 286 286 286 286 286 286
285 285 285 285 285 285 285 286 287 287 288 288 288 288 288 289 289 289 288 288 287 288 288 289 289 289 288 288 288 288 287 287 288 288 288 289 290 291 291 291 292 292 293 294 294 293 293 293 292 292 291 291 289 287 286 286 286 285 285 285 285 285 285 286 286 286 286 286 286
285 285 285 285 285 285 285 286 287 287 287 288 288 288 288 288 289 288 288 287 287 288 288 288 287 287 287 287 287 287 287 287 287 287 287 287 287 288 289 291 291 292 293 293 293 293 292 292 292 291 291 290 289 287 286 286 285 285 285 284 284 284 285 284 284 285 285 286 286
285 285 285 285 285 285 285 285 286 286 287 287 287 288 288 288 289 289 289 288 288 288 287 287 286 286 286 286 286 287 287 287 286 286 286 286 286 286 287 289 290 291 292 293 292 292 292 292 291 291 290 290 288 287 286 285 285 285 284 284 284 284 284 284 284 284 284 285 285
285 285 285 285 285 285 285 285 285 286 286 286 287 287 288 288 288 289 289 289 288 287 287 287 286 286 286 285 285 286 286 286 286 286 287 286 286 286 286 286 288 290 292 292 292 292 291 291 291 290 290 290 288 287 285 285 284 284 284 284 284 284 284 284 284 284 284 284 284
285 285 285 285 285 285 285 285 285 285 285 285 286 286 287 287 287 288 289 289 288 287 287 287 286 286 286 286 285 285 285 285 285 285 286 286 285 285 285 285 286 288 290 292 292 292 291 290 290 290 289 289 287 286 285 284 284 283 283 283 283 284 283 283 283 283 283 283 284
284 284 284 284 285 285 285 285 285 285 285 285 285 286 286 286 286 287 288 289 288 287 287 286 286 286 286 286 286 286 286 285 285 285 285 285 285 284 284 284 285 287 289 290 290 291 291 290 290 289 289 288 286 284 283 283 283 283 283 283 283 283 283 283 283 283 283 283 283
284 284 284 284 284 284 285 284 284 284 284 284 284 285 286 286 286 287 287 288 288 287 286 286 286 286 285 285 285 285 285 285 284 284 285 285 284 283 283 283 284 286 288 288 289 289 290 290 289 289 288 287 285 283 283 282 282 282 282 282 282 282 282 282 282 282 282 282 282
284 284 283 283 283 284 284 284 284 283 283 284 284 284 285 286 286 286 287 287 287 286 286 285 285 285 285 285 285 285 285 284 284 284 284 284 284 283 282 282 283 284 286 288 288 289 289 289 289 288 287 285 283 283 282 282 282 282 282 282 282 282 282 282 282 282 282 282 283
283 283 283 283 283 283 283 283 283 283 283 283 284 284 285 286 286 286 286 287 286 286 285 285 285 285 285 285 285 285 285 284 284 284 284 283 283 283 282 281 282 283 285 287 288 288 289 289 289 288 287 285 283 282 282 282 281 281 281 281 281 281 282 282 282 281 282 282 285
283 283 283 283 282 282 283 283 282 282 282 283 283 284 284 285 286 286 286 287 286 286 285 285 285 285 286 286 285 284 284 284 284 284 284 283 283 283 283 281 281 282 284 287 287 288 288 289 289 288 287 285 283 282 282 282 281 281 280 280 281 281 281 281 281 281 282 283 286
283 282 282 282 282 282 282 282 282 282 282 282 282 283 284 285 286 286 287 286 286 286 286 285 285 286 286 286 285 284 283 283 283 284 284 283 283 284 283 281 280 281 283 286 287 287 288 290 290 288 287 285 283 282 282 281 280 280 280 280 280 281 281 281 281 281 281 282 285
282 282 282 282 282 281 281 281 281 281 282 282 282 283 284 285 285 286 286 286 286 286 286 286 286 285 286 285 284 284 283 283 283 283 283 283 283 283 283 281 280 280 282 284 286 287 288 290 290 288 287 285 283 282 281 281 280 279 279 279 280 280 280 280 279 280 281 282 283
Wind_Speed
12 12 11 11 10 10 9 9 9 10 10 9 9 8 7 6 5 4 3 3 3 3 4 5 6 6 7 9 9 6 1 3 3 3 3 3 4 4 3 3 3 3 2 2 2 2 2 2 2 2 2 2 2 1 1 1 1 1 1 1 0 0 0 0 1 1 1 1 1
13 14 13 13 12 11 10 9 9 10 10 10 9 8 7 6 5 4 4 3 3 2 3 4 5 6 6 6 9 10 8 3 0 2 3 4 4 4 4 3 3 3 3 3 2 2 2 2 2 2 2 2 1 1 1 1 0 0 0 1 1 0 0 1 1 1 2 2 1
14 15 14 14 13 12 11 10 10 11 11 11 11 9 8 6 5 4 4 4 3 3 3 3 5 5 5 3 4 6 9 8 3 0 3 4 4 4 4 4 4 3 3 3 2 2 2 2 2 2 2 1 1 0 1 1 1 1 1 2 1 1 1 1 2 2 2 1 1
16 15 15 15 16 15 14 12 12 12 12 11 12 11 9 7 5 4 4 3 4 3 3 3 4 6 7 5 3 3 4 6 3 1 2 3 4 4 4 4 4 4 3 3 2 2 2 3 2 2 2 1 1 1 1 2 1 1 2 2 2 1 1 1 2 1 1 1 1
16 16 15 15 17 17 15 14 14 13 12 11 11 12 10 8 5 3 3 3 3 3 3 3 4 5 7 6 4 3 3 3 2 1 1 3 4 4 4 4 4 4 4 3 3 3 3 3 2 2 1 1 0 1 1 2 1 1 1 1 1 1 2 1 1 1 1 1 1
16 17 17 17 18 17 16 14 15 14 12 10 12 13 12 9 6 3 2 2 2 2 3 3 4 5 5 5 4 3 2 2 2 2 1 1 3 4 4 4 4 4 4 4 3 3 3 2 2 1 1 0 1 1 2 2 2 1 1 1 1 1 1 1 1 1 1 1 1
17 17 18 18 19 18 17 16 15 13 12 11 12 13 14 12 9 6 4 2 2 2 3 3 3 4 4 4 3 2 2 2 2 2 2 1 1 2 2 3 3 3 3 4 3 3 2 2 1 0 0 1 1 2 2 2 1 1 1 1 1 1 1 1 1 1 1 1 2
17 17 18 19 19 19 18 18 16 14 12 10 11 13 14 14 13 12 9 6 3 2 2 3 3 3 3 3 3 3 2 2 3 3 3 3 2 2 3 3 3 3 3 3 3 3 2 2 1 1 0 0 1 1 2 2 1 1 1 1 1 1 0 1 1 1 1 2 3
16 17 18 18 18 19 19 19 17 15 13 12 12 13 14 15 15 14 12 10 6 3 2 2 2 2 1 2 3 2 2 2 3 4 4 3 3 2 2 3 3 3 3 3 3 3 3 2 1 1 0 0 1 1 2 2 2 2 2 2 2 1 1 1 0 1 1 2 3
17 17 18 18 19 19 20 19 17 16 14 13 13 13 13 14 14 13 11 10 8 5 3 1 1 1 1 1 2 1 1 1 2 2 3 2 2 1 2 2 2 2 2 2 3 3 3 2 1 1 0 0 1 1 2 2 3 3 3 2 2 2 2 2 2 1 1 1 2
17 18 18 17 19 20 20 19 17 16 14 14 14 14 13 13 13 12 11 11 11 9 6 3 2 1 1 1 1 1 0 0 1 1 2 1 1 0 1 2 2 2 2 2 3 3 3 2 1 0 0 0 0 1 1 2 2 2 3 2 2 2 2 3 2 2 2 2 2
17 17 17 17 19 19 19 18 16 15 15 15 15 14 13 12 12 12 12 14 15 13 10 5 3 3 3 2 2 2 2 2 1 1 1 1 1 1 1 2 2 2 2 2 2 2 2 2 1 1 0 0 0 1 1 1 2 2 2 2 1 1 2 2 3 3 3 3 3
17 17 17 17 18 18 18 17 15 15 15 15 15 13 12 11 11 10 10 12 14 14 13 10 6 5 5 5 5 4 4 3 3 2 2 2 2 2 2 2 2 2 2 2 2 2 2 2 1 1 0 0 0 1 1 1 0 1 1 2 2 2 2 3 3 3 3 3 4
16 17 17 17 17 17 16 16 14 14 14 15 13 11 10 9 9 9 9 8 9 10 12 11 7 5 5 7 7 7 6 5 5 4 4 3 3 2 2 2 2 3 3 3 3 3 3 2 2 1 1 0 0 1 1 2 3 4 4 5 5 5 6 6 5 5 4 4 3
16 16 17 17 16 15 15 15 13 12 13 13 12 10 9 8 8 9 9 9 8 7 6 5 2 1 2 4 6 7 7 7 6 5 5 4 3 2 2 2 3 4 4 4 4 4 4 3 2 2 2 2 3 4 4 5 6 7 7 8 8 8 8 8 8 8 7 6 5
16 16 16 16 15 14 14 13 11 11 12 13 13 11 10 8 8 8 9 9 8 6 5 4 3 3 2 1 2 4 5 6 6 5 5 3 3 2 3 4 4 5 5 5 5 5 4 4 4 4 5 5 6 7 8 8 9 9 9 9 9 9 8 8 8 8 8 8 8
15 15 14 14 14 14 13 13 11 11 12 14 14 13 11 9 8 8 9 9 8 7 6 6 5 4 4 3 2 1 2 3 4 4 3 3 3 4 5 5 5 5 5 6 6 6 5 5 6 7 7 8 8 8 9 9 9 9 9 9 9 8 8 8 8 8 8 8 9
15 14 13 13 13 13 13 13 12 12 12 13 14 13 12 11 10 10 9 10 9 8 7 6 5 4 3 2 2 2 1 1 2 3 3 4 5 5 5 5 5 5 5 6 7 7 8 8 8 8 8 8 8 8 9 9 9 9 9 9 8 8 8 8 8 8 8 9 9
14 14 13 13 13 13 13 13 13 12 12 12 12 12 12 12 12 11 10 10 10 9 9 7 5 4 3 2 2 2 2 1 2 3 4 4 5 6 6 6 6 6 6 8 9 9 9 9 9 9 8 8 8 8 8 9 9 9 9 8 8 8 8 8 8 8 8 8 8
14 13 13 12 12 12 12 13 12 12 12 11 12 12 12 11 11 11 10 10 9 9 9 8 6 5 4 3 3 3 2 1 1 3 4 4 5 6 7 7 7 7 8 9 9 9 9 9 9 9 9 9 9 8 8 9 9 9 8 8 8 8 8 8 8 8 8 8 8
13 13 12 12 12 12 12 12 12 12 12 12 12 12 12 11 10 10 10 9 9 8 8 7 6 5 5 5 4 4 2 1 2 3 4 4 5 6 7 7 8 8 9 10 9 9 9 9 9 9 9 9 9 8 8 8 9 9 8 8 8 8 8 8 8 8 8 8 8
12 12 12 12 12 12 13 12 12 12 12 12 12 12 12 12 10 9 8 8 8 7 7 6 5 4 4 5 5 4 3 2 3 3 3 4 5 6 7 7 8 9 10 10 10 10 10 10 10 10 9 9 8 8 8 8 8 8 8 8 8 8 8 8 7 7 8 8 8
11 11 11 11 11 13 13 13 12 12 12 12 12 12 13 12 11 9 8 7 7 6 6 5 4 3 3 3 4 5 5 4 4 4 4 5 6 6 7 7 8 9 9 9 9 9 9 9 10 9 9 8 8 8 8 8 8 8 8 8 8 8 7 7 7 7 7 7 7
11 11 10 10 11 12 13 13 13 12 12 12 13 13 13 13 12 10 8 6 6 6 5 4 4 5 5 6 6 6 6 6 5 4 5 7 7 8 8 8 8 8 8 8 9 9 9 8 8 8 8 7 7 7 8 8 7 7 7 7 7 6 6 6 6 6 6 6 5
11 11 11 11 12 12 13 13 13 13 12 12 13 13 13 13 12 10 9 7 6 6 6 6 7 7 8 8 9 9 8 8 7 6 6 8 9 9 8 8 8 7 8 9 13 13 12 10 8 7 6 6 6 6 7 7 7 7 7 7 6 6 5 6 6 5 5 5 4
11 11 11 11 12 12 13 14 13 13 13 13 13 14 14 13 11 10 10 10 9 8 7 8 8 9 9 10 11 11 11 10 9 7 8 9 10 10 9 8 8 8 9 12 15 16 16 15 12 9 7 5 5 6 6 6 7 7 7 7 6 6 5 5 6 6 5 4 4
11 11 11 11 11 12 13 13 13 12 12 13 14 14 14 13 10 10 11 12 11 10 8 8 9 9 10 10 12 12 12 10 10 9 9 11 11 11 10 9 8 8 10 15 17 17 16 15 14 12 9 5 5 5 5 5 6 6 6 6 5 5 5 5 5 5 5 4 4
11 10 10 11 11 12 13 13 13 13 13 13 13 13 13 12 10 11 11 12 12 10 9 8 8 8 8 9 11 12 12 11 10 9 10 11 12 11 10 9 8 10 13 17 17 17 16 14 13 12 10 7 5 4 5 5 5 5 4 4 4 5 4 4 4 4 4 4 4
11 11 10 11 11 12 13 13 13 13 13 13 13 13 13 12 10 11 12 12 12 11 10 8 7 7 8 9 10 11 11 11 10 10 10 11 12 11 10 10 10 12 15 18 17 16 15 14 13 12 11 8 5 3 3 3 3 3 3 3 3 4 4 4 3 3 3 3 3
11 11 10 11 11 12 13 13 14 14 14 13 12 12 12 11 10 10 11 12 12 11 10 9 8 8 9 9 9 9 9 10 10 10 11 13 12 11 10 10 9 11 14 17 16 15 14 13 12 11 10 9 6 4 3 3 3 3 3 3 4 4 4 4 4 3 3 3 3
11 11 11 11 11 12 12 12 13 14 14 14 13 12 12 11 10 10 10 10 10 10 10 10 10 10 10 9 8 8 8 9 9 10 11 12 12 12 11 10 10 11 13 15 14 14 13 12 11 10 9 8 6 4 3 3 3 3 3 4 4 5 5 4 5 5 5 5 4
11 11 11 11 11 11 11 12 12 14 15 15 14 13 12 11 9 8 8 8 8 8 9 9 10 10 9 9 8 8 8 8 9 10 10 10 11 11 11 10 10 10 12 14 13 12 11 11 10 9 8 7 5 3 3 3 3 4 4 5 5 5 5 5 5 5 6 6 6
11 11 11 11 11 11 11 11 11 13 14 15 15 14 14 12 10 8 7 7 6 7 7 8 8 8 8 8 8 8 8 8 9 9 10 10 10 10 10 9 8 10 12 13 12 11 10 9 9 8 7 7 5 3 2 3 3 4 4 5 5 5 5 5 5 6 6 7 6
12 12 12 12 11 11 10 11 11 12 13 14 15 14 14 13 12 10 8 7 6 6 6 6 6 7 7 7 7 7 8 8 9 9 9 8 9 9 9 8 7 10 12 12 10 9 8 7 7 7 7 7 5 3 2 2 3 4 5 5 5 5 5 6 6 6 7 7 6
12 12 12 12 12 11 11 11 11 11 12 13 14 14 13 12 12 11 9 8 7 6 6 6 6 6 7 7 7 7 8 9 9 9 8 8 8 8 9 8 7 10 12 11 9 7 6 5 5 5 6 5 4 3 3 3 3 4 5 6 5 6 6 6 6 6 6 6 5
11 12 12 12 12 12 11 11 11 11 11 12 12 13 12 11 11 11 10 9 8 6 6 6 6 6 6 7 7 8 9 9 9 9 9 9 9 8 8 7 7 9 11 11 10 7 5 4 4 5 5 4 3 3 3 3 3 4 5 5 5 6 6 6 6 5 5 4 4
10 11 11 11 12 12 11 11 12 12 11 11 11 11 11 11 10 10 10 9 7 7 6 6 6 6 6 6 7 7 8 8 8 9 9 10 9 9 8 7 7 8 11 12 11 9 7 5 5 5 5 3 3 3 3 3 3 4 4 4 5 5 6 6 5 4 3 2 4
9 10 10 10 10 11 11 11 11 12 12 11 10 10 10 9 8 8 9 9 7 6 6 5 5 5 5 6 6 7 7 7 8 8 8 8 8 8 8 7 7 8 9 12 12 11 10 8 6 5 4 3 3 3 4 4 4 4 4 3 3 4 5 5 4 3 2 3 6
10 9 9 9 9 10 10 10 11 11 11 11 10 10 9 9 7 7 7 7 6 6 5 5 5 5 5 5 5 5 6 6 7 7 7 7 8 8 8 7 7 7 9 11 11 11 11 10 7 5 5 4 4 4 4 5 5 5 4 3 3 3 4 4 4 3 2 3 8
10 10 10 9 9 10 10 10 11 10 10 10 10 9 9 8 7 7 6 6 5 5 5 5 5 5 5 5 4 5 5 6 6 6 7 6 7 8 9 7 6 7 8 10 11 11 11 11 8 7 7 6 5 5 5 5 5 5 5 4 3 3 3 3 3 3 3 4 8
11 11 11 11 10 11 11 11 11 11 10 10 10 9 8 8 7 6 6 5 5 5 5 5 5 5 5 5 4 4 5 5 5 5 5 5 6 6 6 5 5 5 7 9 10 11 11 12 9 9 9 7 6 5 5 4 4 5 5 5 4 3 3 3 3 3 4 5 6
Wind_Direction
323 319 315 312 308 305 302 300 297 295 292 289 283 277 272 269 270 271 273 275 283 294 306 315 324 330 328 316 309 305 281 148 137 128 119 110 103 99 94 89 83 76 67 56 55 62 75 88 89 85 77 68 47 24 6 357 12 13 8 3 5 30 45 30 297 285 281 278 269
323 320 317 314 310 307 303 301 298 297 296 294 288 281 275 270 268 264 260 254 250 256 272 288 307 320 326 321 310 308 309 306 92 112 107 102 100 99 97 90 84 77 71 62 54 55 64 81 90 93 89 81 68 35 340 310 313 318 295 276 260 219 175 205 235 241 246 250 256
323 321 319 316 313 309 305 301 298 298 297 297 294 288 279 269 262 256 250 242 233 230 235 255 281 292 299 296 282 288 292 294 293 70 103 104 103 102 97 92 85 79 75 69 61 53 53 62 82 90 95 90 97 129 257 263 240 218 216 228 228 210 194 206 220 224 226 231 235
324 321 319 316 313 310 306 302 299 298 297 298 297 293 287 274 262 250 242 234 226 221 220 224 253 270 275 270 250 251 265 279 288 336 97 109 114 115 114 111 109 105 99 89 73 55 43 43 60 76 89 98 133 222 243 254 236 217 205 204 200 195 197 207 212 211 212 217 219
324 321 319 316 313 311 307 303 300 298 296 296 297 297 296 289 276 259 239 230 224 217 212 213 232 249 257 260 255 251 257 276 296 319 111 126 130 133 134 133 131 126 118 103 86 65 47 35 39 46 56 72 215 246 253 258 259 247 223 201 185 182 184 199 207 205 200 212 225
324 321 319 316 314 312 309 306 302 299 296 294 294 296 298 299 295 280 234 205 202 199 198 201 217 229 234 234 237 243 254 275 289 291 269 151 141 139 138 134 127 119 112 106 97 84 69 50 36 24 7 324 273 264 265 270 273 279 275 260 211 178 173 188 199 197 191 218 252
324 322 320 319 317 315 312 310 307 303 299 295 293 293 294 296 293 285 273 230 200 190 189 186 197 212 226 236 241 245 256 279 292 298 300 314 100 111 110 104 101 101 101 102 100 98 95 95 97 129 255 256 261 266 271 276 278 279 280 274 256 201 171 188 193 193 200 225 241
325 323 322 321 319 318 316 315 313 311 307 303 296 293 291 289 283 279 278 280 265 226 199 181 183 201 230 256 270 281 298 315 319 325 332 349 12 39 57 66 74 80 86 92 93 92 90 95 108 130 190 236 260 282 290 304 311 309 296 282 284 274 204 191 191 194 206 221 235
327 326 325 323 323 322 322 321 318 315 313 309 304 297 291 286 279 272 268 270 272 267 241 196 182 191 221 257 270 282 300 315 320 328 337 348 3 23 43 53 60 66 73 82 85 82 79 74 76 81 81 342 305 307 314 325 330 327 317 305 308 314 320 309 250 214 216 220 230
329 328 326 325 326 326 326 324 321 317 314 311 309 305 297 290 283 274 264 256 260 265 268 236 189 177 201 240 249 260 285 309 316 322 328 333 347 20 50 63 70 72 74 79 82 82 81 77 68 49 7 9 325 316 319 325 323 318 312 309 313 320 322 326 325 314 286 254 243
329 328 328 327 329 329 328 326 322 318 315 312 311 308 304 298 289 281 271 260 257 257 254 233 195 175 181 211 217 207 175 74 327 316 306 300 314 23 80 89 90 89 88 85 86 89 92 98 106 124 280 286 297 295 298 300 296 294 293 292 300 307 313 314 318 316 311 298 286
330 329 329 329 330 330 328 325 322 319 316 313 310 308 306 304 297 287 275 265 259 254 248 232 205 182 176 183 185 175 158 145 157 218 249 252 234 181 130 118 113 110 106 101 100 101 106 113 121 133 196 268 243 239 248 254 260 265 271 279 289 300 303 304 305 302 298 296 295
331 331 331 331 331 330 327 324 322 320 318 314 311 309 309 311 312 306 293 275 262 255 249 239 219 193 176 173 173 171 166 159 163 177 198 215 207 187 163 144 133 123 116 111 105 104 104 107 107 107 132 246 243 235 231 243 293 348 354 352 358 358 348 333 322 314 304 295 287
333 333 333 333 332 330 327 325 324 323 321 319 318 318 319 322 327 328 322 309 287 269 256 244 227 201 177 171 169 168 168 164 165 172 184 196 194 185 170 145 123 108 98 90 86 84 84 85 94 102 116 129 45 39 40 44 44 40 35 29 28 24 18 5 359 352 343 329 312
335 335 335 335 332 330 328 327 326 326 327 327 328 329 331 332 336 338 337 336 330 311 285 259 243 201 169 164 162 163 165 163 167 173 180 183 180 168 138 99 82 75 71 70 69 67 66 65 67 68 66 63 55 51 49 48 48 46 42 39 38 34 27 15 12 8 2 356 356
336 337 336 335 332 330 329 330 329 331 333 333 334 334 335 336 338 339 341 345 350 356 7 27 32 26 19 43 137 153 158 159 167 171 172 164 146 116 89 74 69 69 70 72 71 68 64 58 57 55 54 57 58 57 55 54 54 51 48 45 44 39 32 22 20 15 11 12 16
337 337 335 333 331 330 331 332 332 334 335 335 336 336 337 337 339 341 343 347 351 360 12 25 28 22 11 2 8 81 151 159 166 163 151 127 105 92 83 79 77 78 81 85 83 77 70 63 62 61 59 60 63 64 64 64 62 60 57 54 50 45 38 30 27 22 20 24 25
337 335 334 331 330 330 331 333 334 334 334 334 335 336 337 339 340 341 344 346 348 353 1 12 21 23 14 352 340 328 297 191 165 147 128 111 102 97 94 90 87 87 87 89 86 80 74 70 70 69 69 68 70 71 72 72 71 68 64 60 55 49 43 37 33 29 29 30 28
337 335 333 331 331 332 332 334 334 334 333 332 333 334 335 338 339 340 341 343 344 346 350 357 6 11 8 340 318 304 287 239 160 132 116 110 108 106 103 98 92 87 84 84 82 80 79 78 78 79 78 76 75 76 76 76 75 72 68 63 57 52 46 41 37 35 34 33 30
336 335 333 333 333 333 334 335 334 333 331 330 330 331 332 334 336 337 338 338 339 340 342 345 350 352 350 338 322 307 293 262 123 109 106 106 109 109 106 100 93 86 80 78 78 79 81 82 82 81 79 77 76 76 77 77 75 72 67 64 58 53 48 44 41 39 36 34 30
336 335 334 335 335 335 335 334 333 332 332 331 331 330 330 330 332 333 333 333 334 334 333 333 336 337 334 324 315 311 315 6 72 85 92 99 105 107 106 102 95 88 81 78 77 78 79 80 78 77 76 74 74 75 77 77 75 72 68 64 59 55 50 46 43 39 36 32 29
335 336 336 336 337 336 336 334 333 333 333 333 333 332 330 329 329 329 329 330 330 327 323 320 321 319 314 307 313 326 350 25 46 60 73 85 94 100 102 102 96 90 85 82 81 79 77 76 75 74 73 72 71 71 72 74 74 73 70 67 63 58 53 48 44 40 36 30 26
336 337 338 337 338 337 337 335 334 335 336 337 335 333 332 330 328 327 326 328 329 327 325 323 329 331 332 334 353 8 21 31 36 45 56 67 73 79 84 88 88 86 85 84 83 82 80 77 75 73 73 72 71 70 70 71 71 71 71 69 66 62 57 53 48 44 38 32 25
338 339 339 339 339 338 337 336 336 337 339 340 337 335 333 332 329 328 327 331 338 343 349 0 16 24 30 35 38 38 36 33 31 40 55 66 68 69 70 73 76 78 80 82 84 84 84 81 78 76 75 74 73 72 71 71 71 71 70 69 66 62 58 55 52 50 47 41 32
338 339 340 340 340 340 339 338 338 339 341 341 339 337 335 333 332 333 338 347 357 8 21 35 42 43 43 43 42 40 36 30 28 41 61 73 73 71 69 69 70 72 75 80 82 83 83 82 81 79 76 76 76 75 74 72 71 71 68 66 63 59 55 51 49 49 51 53 47
339 340 341 340 341 341 341 340 339 340 342 343 342 340 338 336 337 346 357 5 9 19 34 47 50 48 46 42 40 36 33 27 27 41 62 77 75 72 69 69 69 71 75 78 81 81 82 82 82 82 80 78 78 78 76 74 72 71 69 66 63 58 53 46 41 38 40 46 53
340 341 341 340 341 342 342 340 340 341 343 345 344 342 341 339 348 3 13 15 13 18 29 46 50 49 46 43 39 35 31 27 28 41 60 74 73 71 69 68 69 72 75 77 79 79 80 81 82 83 83 80 79 79 80 79 78 76 75 72 68 64 58 51 42 34 29 28 39
343 343 342 342 344 344 343 342 342 343 345 345 344 343 342 344 360 16 23 21 17 17 23 38 45 47 45 43 39 35 31 27 27 37 53 67 68 67 66 67 69 73 75 75 75 75 76 77 79 80 80 78 75 75 78 81 81 81 82 81 80 76 72 63 51 39 28 18 21
346 345 345 346 347 347 347 346 346 346 345 343 342 342 345 350 8 23 29 27 23 20 21 27 36 43 46 47 43 38 33 30 28 32 41 52 58 61 62 64 67 70 72 72 71 70 70 72 74 76 77 76 72 70 71 77 80 81 81 81 79 80 79 75 66 51 36 20 16
349 348 347 348 349 350 350 350 349 348 346 343 342 343 347 354 12 27 33 31 28 25 23 23 32 41 47 50 46 41 37 33 32 33 37 42 47 51 55 58 62 66 68 67 66 65 64 64 67 71 75 79 79 78 74 77 77 76 71 67 59 57 56 55 50 41 31 19 14
350 349 348 348 350 351 352 352 352 351 349 347 345 346 350 357 15 29 36 35 33 30 28 27 31 37 42 45 45 43 40 37 37 37 38 38 40 41 43 47 54 61 65 63 61 58 55 53 55 59 67 75 80 82 84 84 84 79 73 66 55 48 42 38 32 24 17 11 6
349 348 348 347 348 350 351 352 354 354 353 352 351 352 354 359 12 27 37 37 34 33 32 31 32 35 37 40 42 42 42 41 42 42 42 41 38 36 34 35 41 50 57 59 57 53 48 45 43 45 52 62 69 77 86 93 92 89 83 76 65 56 47 41 34 26 19 13 6
349 348 347 346 347 348 350 352 356 357 357 357 356 357 358 359 6 18 31 36 35 35 36 37 36 37 38 39 39 42 44 47 49 49 49 47 44 40 36 30 31 37 44 51 53 52 48 42 38 36 38 44 43 46 62 89 94 93 89 82 74 65 56 49 42 34 27 19 10
350 349 348 347 347 348 350 352 356 359 1 0 359 359 360 0 3 10 21 30 31 35 39 42 42 44 45 44 42 40 41 45 50 54 55 55 52 48 42 34 28 29 32 40 46 52 52 47 39 35 34 34 26 19 23 60 85 92 92 89 82 72 64 56 49 41 32 23 13
351 350 349 349 349 350 351 352 355 359 2 3 0 359 359 0 2 7 13 22 25 30 36 41 43 45 48 49 48 45 41 38 40 43 48 54 55 54 49 41 31 26 25 28 35 46 58 61 50 42 37 31 19 10 14 40 71 86 91 92 87 81 74 66 58 47 35 23 14
351 351 351 351 352 352 353 353 353 357 0 4 1 359 358 359 1 4 9 15 18 24 29 34 35 37 40 43 45 46 44 40 37 36 36 40 45 47 47 42 32 24 20 18 19 27 43 63 60 51 42 29 12 7 17 36 58 74 82 90 91 88 84 78 70 58 42 23 18
350 350 350 351 353 354 355 355 354 355 357 0 0 358 356 357 359 1 4 9 12 16 20 25 28 32 36 41 43 43 43 42 39 37 35 35 37 38 38 33 27 20 16 13 10 10 12 22 39 46 44 30 14 15 26 38 48 57 67 80 90 94 94 90 84 75 58 38 46
347 347 348 349 351 353 355 356 356 354 353 354 356 356 354 354 356 358 0 3 6 8 10 13 18 26 34 41 45 45 43 42 41 40 38 36 36 35 32 25 18 13 11 11 8 4 0 1 16 36 48 38 28 31 39 42 41 39 40 49 75 92 99 100 99 94 83 68 67
345 345 345 347 349 351 354 356 356 354 351 349 351 351 351 351 351 352 354 356 358 359 0 3 7 17 28 39 43 43 41 40 40 39 38 37 36 34 31 23 12 6 5 8 6 2 359 359 12 37 56 50 44 44 46 46 38 30 22 19 41 72 90 100 105 106 94 71 64
346 346 346 347 348 351 353 355 355 352 349 347 347 347 347 346 344 344 346 349 352 354 355 357 2 11 23 36 40 39 37 35 35 35 36 36 36 36 34 26 11 2 360 3 5 3 3 7 27 51 61 53 48 48 50 47 36 24 14 5 18 46 72 85 97 99 89 66 55
349 348 349 349 349 351 352 353 352 350 347 345 345 345 344 342 339 338 341 346 351 355 358 359 4 11 20 32 36 35 32 32 29 29 30 33 39 40 39 31 13 360 355 358 4 7 11 20 45 62 67 59 52 49 49 46 35 22 9 359 5 26 52 63 69 77 76 65 51